Wind_Speed
28 29 30 30 29 29 30 30 30 31 33 33 32 31 31 30 29 27 26 25 24 22 21 20 19 18 16 15 14 13 13 13 12 11 10 10 11 12 14 16 17 17 18 18 19 20 20 20 20 21 22 23 24 26 28 31 34 34 31 26 22 21 21 21 22 23 24 25 27 28 28 28 28 29 29 30 30 31 31 31 30 28 27 27 28
29 29 29 31 32 31 31 30 29 30 31 32 32 32 32 31 31 29 28 27 26 24 24 22 21 20 19 17 15 15 14 14 14 13 11 11 11 13 15 16 17 17 18 18 19 20 20 20 20 20 22 23 24 26 28 31 33 33 28 23 20 19 20 21 22 23 24 25 26 27 28 27 27 27 27 28 30 30 30 31 31 29 27 26 26
30 29 29 29 31 32 32 32 30 30 30 31 32 32 32 32 32 30 30 29 28 27 26 25 24 22 20 19 17 16 16 15 15 14 13 12 13 14 16 17 17 18 18 18 19 19 19 19 20 21 21 22 24 26 28 31 33 31 26 21 18 18 19 20 21 22 22 23 24 25 26 27 27 27 28 29 30 30 30 30 30 30 29 28 27
31 31 29 28 29 31 33 33 32 30 29 29 31 31 31 32 32 31 31 30 30 29 28 27 26 24 22 20 19 18 17 16 16 15 14 14 14 15 17 18 18 18 17 18 19 19 19 19 20 21 21 22 24 25 28 31 32 30 25 19 17 17 18 19 20 20 20 21 22 23 24 25 27 29 29 29 30 30 29 28 28 28 29 29 28
32 32 31 29 28 30 33 35 34 32 30 29 30 30 31 32 31 31 32 32 31 30 29 28 27 26 24 22 21 20 19 18 17 16 15 15 16 17 18 19 20 19 18 19 19 19 19 19 20 21 21 22 23 25 28 30 31 28 23 18 15 15 16 17 18 19 19 19 20 21 22 23 25 28 29 29 29 29 28 27 26 25 27 29 27
32 33 33 31 29 29 31 35 36 35 32 30 30 30 31 31 31 31 32 31 31 31 30 29 28 27 26 24 23 21 20 19 18 17 17 16 17 17 18 20 21 20 19 19 20 19 19 20 20 21 21 22 23 25 28 30 30 27 21 17 14 13 14 16 17 17 17 17 18 18 18 19 22 24 26 27 26 26 28 28 25 24 28 32 31
33 33 33 33 32 31 31 34 36 36 34 33 31 31 31 31 30 31 31 31 31 31 30 30 29 29 28 26 24 23 22 21 20 19 18 18 18 18 19 20 21 21 20 21 21 20 20 20 21 22 22 22 24 25 28 29 30 26 21 16 13 13 14 15 16 17 17 16 16 16 15 15 18 21 25 26 25 24 26 27 27 30 37 43 43
35 34 34 35 35 34 34 34 35 35 34 34 33 33 32 32 31 31 31 31 31 30 30 30 30 30 29 27 25 24 23 22 22 21 20 19 19 19 20 21 22 22 21 21 21 21 20 21 22 22 22 23 24 26 28 29 29 25 20 16 13 13 14 15 16 17 17 16 16 15 15 15 17 21 25 27 25 22 23 28 32 40 45 47 48
37 36 35 36 36 36 35 35 35 34 34 34 35 35 34 34 33 32 32 31 30 30 30 30 30 30 30 28 26 26 25 24 23 23 22 21 20 20 20 22 22 22 22 22 22 21 21 22 23 23 23 23 24 26 28 29 29 25 20 15 13 13 15 16 16 16 16 16 16 17 16 16 18 22 26 28 24 21 25 33 39 42 42 41 41
39 38 37 37 36 36 36 36 36 35 34 35 35 36 36 35 35 34 33 31 30 30 30 31 31 30 30 29 27 27 26 24 24 24 24 23 22 22 22 22 23 23 23 23 22 21 21 22 23 23 23 24 25 26 28 29 29 25 20 16 14 13 14 16 16 16 16 16 17 19 19 19 21 23 28 29 24 24 33 41 43 42 40 38 37
41 40 40 38 36 35 35 36 37 36 36 36 36 36 37 37 36 36 34 32 31 31 31 31 31 31 30 29 28 27 26 25 25 26 25 25 24 24 24 24 24 24 24 24 23 22 22 22 23 23 23 24 25 26 28 29 28 25 20 16 14 14 14 15 16 17 17 17 18 20 21 23 24 25 30 29 26 32 42 45 44 41 39 38 38
42 42 40 38 35 34 34 35 37 38 37 37 37 37 37 38 38 37 36 35 34 33 33 32 31 31 31 30 29 28 26 26 27 28 27 26 26 26 25 25 26 25 25 24 24 23 23 23 24 24 24 24 26 27 28 29 28 25 21 17 16 15 15 16 17 18 18 19 19 19 21 25 26 28 30 28 27 37 46 46 44 41 39 38 39
42 42 40 38 35 35 34 35 37 38 38 38 38 37 38 38 38 37 37 36 36 35 35 34 33 32 32 31 30 29 27 28 29 29 29 28 28 28 27 27 27 27 26 25 25 24 24 24 25 25 24 25 26 27 28 29 28 26 22 18 17 16 16 17 18 20 20 21 21 20 21 26 28 29 29 25 25 37 46 46 43 42 41 42 44
41 41 40 39 36 35 34 35 36 37 38 38 38 39 39 39 38 38 38 38 38 37 37 36 34 34 33 33 32 31 29 29 30 31 31 31 31 31 29 29 29 28 27 26 26 25 25 26 26 25 25 26 27 28 29 29 29 27 24 20 18 17 17 18 19 21 22 23 23 22 23 26 27 27 27 24 25 35 45 45 42 42 44 45 47
40 41 41 40 38 36 35 35 36 37 37 38 39 40 40 40 39 39 39 39 39 38 38 37 37 36 35 35 34 33 31 31 32 33 33 34 34 33 32 31 30 29 28 28 27 27 26 27 27 26 26 26 28 29 30 30 29 28 26 22 19 18 17 18 20 22 24 24 24 23 25 28 27 25 25 25 25 31 39 41 40 42 44 46 47
39 41 42 41 40 38 36 35 35 35 36 38 39 40 40 40 40 39 39 40 40 39 39 38 38 37 37 37 36 35 34 34 35 36 36 37 37 35 34 33 32 31 30 29 28 28 28 28 27 27 27 27 28 29 30 30 30 29 28 25 22 20 19 20 21 22 25 25 24 24 27 29 28 27 27 27 27 29 34 37 39 42 44 45 47
38 41 43 43 42 40 38 36 35 35 35 36 38 39 40 40 39 40 40 41 41 40 39 38 38 38 39 39 39 38 37 37 38 38 39 39 39 37 36 35 34 32 31 29 29 29 29 29 28 28 27 28 29 30 31 31 31 30 29 27 24 22 21 22 22 24 26 26 25 27 30 30 29 29 30 31 32 33 36 38 41 43 44 44 45
38 41 43 45 44 43 41 38 36 35 35 35 36 37 37 38 39 39 41 41 41 40 39 38 39 40 41 41 41 41 40 40 41 41 41 41 41 39 38 37 35 33 31 30 30 30 30 30 29 28 28 28 30 31 31 32 32 31 31 29 27 25 23 24 25 26 28 28 28 30 32 31 31 33 35 36 37 38 39 41 43 45 46 47 46
38 41 43 45 46 45 42 40 37 36 35 35 35 35 35 35 36 38 39 40 40 39 39 39 40 41 42 42 43 43 42 42 43 43 43 43 43 41 39 38 36 34 32 31 32 31 31 31 30 29 29 29 30 31 32 33 33 32 32 31 29 26 25 25 26 28 29 30 31 33 34 34 36 37 39 40 41 41 42 43 45 47 48 50 50
38 40 42 44 45 46 44 41 39 37 36 36 35 34 33 33 34 35 37 38 38 39 39 39 40 41 41 42 42 43 43 43 44 44 44 44 44 42 41 39 37 34 33 33 33 32 32 31 31 30 30 30 31 32 33 34 34 34 34 33 30 28 27 26 27 29 30 31 31 32 33 35 36 37 39 40 42 44 46 47 48 49 50 51 52
37 38 40 43 45 46 45 43 41 39 38 36 35 34 33 32 33 34 35 35 37 38 38 39 40 40 40 40 41 42 42 42 43 44 44 44 43 43 41 40 38 36 35 34 34 33 32 32 32 32 32 32 32 33 34 34 35 35 34 34 32 31 29 27 27 28 30 31 31 31 33 35 37 38 40 42 43 46 48 50 51 53 54 54 53
37 38 41 43 45 47 47 45 43 40 38 37 36 35 34 34 34 34 34 35 36 37 38 39 40 40 40 40 40 40 41 41 42 43 44 43 43 43 42 40 39 37 36 36 35 34 33 33 33 33 34 34 34 34 35 35 36 36 35 34 33 32 30 29 28 28 29 29 30 32 34 36 38 39 41 43 45 47 49 51 53 55 57 58 57
39 40 42 44 46 47 48 47 45 42 40 39 38 37 36 36 36 36 36 37 37 38 38 39 40 40 40 40 40 40 40 41 41 42 43 43 44 44 43 41 40 39 38 37 36 35 34 34 34 34 35 36 36 36 37 37 37 37 36 35 35 33 31 29 29 29 29 29 30 32 34 36 38 40 42 44 46 48 50 52 54 56 58 59 58
39 41 42 43 45 46 47 47 46 44 42 41 40 40 39 39 39 39 39 39 39 39 39 40 40 41 41 41 40 40 40 40 41 41 42 43 43 43 43 42 41 40 39 37 36 36 35 35 35 36 36 37 38 38 39 39 38 38 38 37 36 33 31 30 30 30 30 30 31 33 35 36 38 40 42 44 46 48 50 52 54 57 58 58 57
37 39 41 42 44 45 47 47 47 46 45 44 43 43 42 42 42 41 41 40 40 40 40 40 40 40 40 40 39 39 39 39 40 40 41 41 42 42 42 42 41 40 38 37 37 37 36 36 37 38 38 39 39 40 40 40 39 39 40 39 36 34 32 32 32 31 31 32 33 34 35 37 39 41 42 44 46 47 49 51 54 57 57 56 56
37 38 40 42 43 45 47 48 48 48 48 47 47 47 46 46 45 44 43 42 42 41 41 40 40 39 39 38 38 37 38 38 38 39 39 40 41 41 41 41 40 39 38 38 38 38 38 38 39 39 40 40 41 42 42 41 41 42 42 39 36 34 33 33 33 33 33 33 34 36 37 38 41 42 43 45 46 48 50 51 53 56 56 55 54
37 37 38 40 42 44 46 48 49 49 50 50 50 50 49 48 47 46 45 44 43 42 41 41 40 40 39 38 37 37 37 37 37 37 37 38 39 39 39 40 39 39 39 39 39 39 39 40 41 41 42 43 43 43 43 43 43 43 42 39 36 35 35 35 35 34 35 35 36 37 39 40 42 44 45 46 47 48 50 52 53 55 57 56 55
37 36 37 38 41 43 45 47 49 50 51 52 52 52 51 50 49 48 47 46 45 43 42 41 41 40 40 39 38 37 37 37 37 37 37 38 39 39 39 39 39 39 40 40 41 41 42 43 43 44 44 45 45 45 45 45 45 44 41 39 37 37 37 37 36 36 37 37 38 39 41 42 44 45 46 47 48 49 51 53 54 56 58 58 57
38 37 37 38 39 41 43 46 48 50 52 53 54 54 53 52 51 49 48 47 46 45 44 43 42 42 41 41 40 40 39 39 38 38 39 39 40 40 40 40 40 41 42 42 43 44 45 45 46 46 47 47 47 47 46 45 44 43 41 40 39 39 39 39 38 38 39 39 40 41 43 44 46 47 48 49 50 51 53 54 56 58 60 60 58
39 39 39 39 39 41 43 45 48 51 53 54 55 55 54 54 52 51 50 49 48 47 46 45 44 42 42 42 42 41 41 40 40 40 40 41 41 41 41 42 42 43 44 45 46 47 48 48 48 49 49 49 48 47 46 45 44 43 42 41 40 41 41 40 40 40 41 42 43 43 45 46 48 49 50 51 51 53 54 56 57 59 60 60 59
41 41 40 40 40 41 42 45 47 50 53 54 55 55 55 55 54 53 52 50 49 49 48 47 46 44 43 43 43 43 42 42 41 41 42 42 42 43 43 44 45 46 47 48 49 49 50 50 50 50 50 49 49 47 46 45 44 43 42 42 42 43 43 42 42 42 44 44 45 45 47 48 49 50 52 52 53 54 56 58 59 60 61 61 60
42 42 42 41 41 41 42 44 46 49 52 54 55 56 56 56 55 54 53 52 51 51 50 50 48 47 47 46 46 46 45 44 44 44 45 45 45 46 46 47 48 49 50 50 50 51 52 52 52 51 50 49 49 48 47 46 45 44 43 43 44 45 45 45 45 46 47 47 47 47 49 50 51 52 54 54 55 56 58 59 60 61 62 63 62
43 43 43 42 42 42 43 44 45 47 50 52 54 55 56 57 57 56 55 55 54 54 53 52 51 50 49 49 50 49 49 48 48 48 48 48 49 49 50 51 51 52 52 52 52 53 53 53 52 52 51 51 50 48 47 46 46 45 44 45 46 47 48 48 49 49 50 50 49 50 52 53 54 55 56 57 58 59 60 61 62 62 64 64 63
44 44 44 43 43 43 43 44 44 46 47 49 51 53 55 56 57 57 56 56 56 55 55 54 53 52 52 52 52 51 51 51 51 51 51 52 52 53 53 54 54 54 54 55 55 54 54 54 54 53 52 51 50 48 47 46 46 45 45 46 48 49 50 51 51 52 52 51 51 53 54 55 56 57 59 59 61 62 63 64 64 65 66 66 65
45 45 45 44 44 44 44 44 44 45 46 47 48 50 51 52 54 55 56 57 57 57 56 56 55 54 54 54 53 53 53 53 53 53 53 54 55 55 55 56 56 56 56 56 55 55 55 54 52 51 50 50 50 48 46 46 46 46 47 47 48 50 51 51 51 51 51 52 54 55 57 57 58 60 61 62 63 65 66 67 67 67 68 69 68
47 46 46 46 46 45 45 45 45 45 46 47 47 48 49 50 51 53 54 55 56 57 57 57 56 56 55 55 54 54 54 53 54 54 55 56 56 57 57 57 58 58 58 57 54 54 54 51 47 46 47 47 47 46 46 46 47 47 47 47 49 52 53 52 52 53 54 55 57 58 59 60 61 62 63 65 66 67 68 70 70 70 70 71 70
49 48 47 47 47 47 46 46 46 46 46 46 47 47 48 48 49 51 52 53 54 55 56 56 56 56 56 55 55 54 54 54 55 56 56 57 58 58 58 58 58 57 57 56 53 50 49 47 45 45 46 46 47 49 49 49 48 48 49 51 54 56 56 57 58 59 59 60 60 61 62 63 64 65 66 68 69 70 71 72 73 73 73 73 71
51 50 49 49 48 48 48 47 47 46 46 46 46 47 47 48 48 49 50 51 52 53 54 54 54 55 54 54 54 54 54 55 55 56 56 56 56 55 55 56 55 53 52 52 51 48 47 48 48 48 49 51 52 54 53 52 51 52 54 56 58 60 61 62 63 63 63 64 65 65 66 66 67 68 70 71 72 73 74 75 76 75 75 75 71
53 52 51 50 50 49 49 48 47 47 46 46 46 46 47 47 47 48 48 49 49 50 51 51 51 51 51 52 52 52 52 52 52 52 52 51 50 49 51 52 50 47 46 48 51 51 51 51 50 50 51 53 54 55 55 55 55 56 57 58 59 60 62 63 64 65 66 68 68 68 69 69 70 71 72 73 74 75 77 78 78 78 78 76 70
56 55 53 53 52 51 50 49 48 48 47 46 46 46 47 47 47 47 47 47 47 47 47 47 47 48 48 48 47 47 48 48 47 47 48 48 46 45 47 48 49 49 49 51 53 54 54 54 54 54 55 55 56 57 58 59 59 60 60 61 62 63 64 65 67 68 69 70 70 71 72 72 73 74 75 76 77 78 80 81 81 81 80 76 69
59 58 56 55 55 54 52 51 51 50 49 48 48 48 47 47 47 47 46 46 46 46 45 44 45 45 44 44 44 45 46 46 44 43 45 47 46 46 47 50 52 55 56 55 54 54 55 55 55 55 55 55 56 58 60 62 63 64 64 66 67 67 68 68 69 70 71 72 73 73 74 75 76 77 77 78 80 82 83 83 84 83 80 74 67
62 61 59 58 58 57 56 54 53 52 52 51 51 51 50 49 49 49 48 47 46 46 45 45 45 44 43 44 44 45 47 47 45 44 45 46 45 47 50 52 54 55 55 55 54 55 56 57 56 57 58 59 61 63 64 65 65 66 67 68 68 69 70 71 72 73 74 75 75 76 77 78 79 80 80 82 83 85 86 86 86 84 78 71 66
66 64 63 61 60 60 59 58 57 56 55 54 54 54 54 53 53 52 50 49 48 46 46 47 47 45 45 46 47 46 47 48 48 49 50 50 49 49 50 51 53 54 55 56 58 58 59 59 59 60 61 62 64 66 67 67 68 68 69 69 70 70 72 73 74 75 76 77 78 78 79 80 81 83 84 85 87 88 88 88 87 83 77 71 67
68 67 66 65 63 62 62 61 60 59 58 58 58 57 57 57 56 55 53 52 51 49 48 49 48 46 47 50 52 52 51 50 50 50 50 51 52 54 55 56 57 58 59 61 62 62 63 64 64 65 66 67 69 70 70 71 71 71 71 71 73 74 75 76 77 77 78 79 80 81 82 84 85 86 87 88 89 89 90 89 87 82 77 73 70
71 70 69 68 66 65 64 64 63 62 62 61 61 60 60 59 58 57 57 56 55 53 52 52 51 50 49 52 55 56 55 55 55 56 56 57 59 61 62 62 61 61 61 62 63 63 63 64 65 66 68 69 70 70 70 71 72 73 74 75 77 77 77 78 78 78 79 81 83 84 86 87 88 89 90 90 91 91 91 90 87 83 80 77 75
72 72 71 70 69 68 67 66 65 65 64 64 63 63 62 62 61 60 59 58 58 57 56 56 56 56 55 55 56 58 59 58 59 61 63 65 66 66 66 65 65 64 64 64 64 64 64 64 65 65 67 68 69 70 71 73 75 76 77 78 78 78 78 78 79 81 83 85 87 88 89 90 91 92 92 93 93 93 92 91 88 85 84 82 81
73 72 72 72 71 70 69 68 67 67 67 66 66 65 65 64 63 63 62 61 61 61 60 59 59 60 60 60 61 62 63 63 63 64 65 66 66 66 66 67 68 68 69 69 69 70 70 71 71 71 71 72 73 74 76 77 77 78 78 78 78 79 80 82 84 85 87 89 90 91 92 93 93 94 94 95 95 95 94 92 90 87 86 86 86
74 73 73 73 72 72 71 70 69 69 69 69 68 68 67 67 66 66 65 65 64 64 63 63 63 63 63 64 65 65 66 67 67 67 68 68 69 69 70 70 71 72 72 73 74 75 75 76 76 77 77 77 78 79 79 79 80 80 80 81 82 84 86 88 89 90 91 92 93 94 95 96 97 98 98 97 97 96 95 93 90 89 89 89 90
76 75 74 74 74 73 73 72 72 71 71 71 71 71 70 70 70 69 69 68 67 67 66 66 66 66 66 67 67 68 69 69 70 70 71 71 71 72 73 74 75 75 75 75 76 76 77 78 79 80 80 81 81 81 81 82 82 83 85 86 88 90 91 92 93 93 94 94 95 96 98 100 101 101 100 99 98 96 94 92 90 91 92 93 94
79 78 77 76 76 75 74 74 74 74 75 75 75 75 74 74 74 73 72 71 70 70 70 69 69 69 69 70 70 71 72 73 73 74 74 74 75 75 76 77 78 78 78 78 78 78 78 78 79 79 80 81 82 83 84 85 87 89 91 92 93 94 95 95 96 96 96 96 97 99 101 103 104 103 102 100 98 96 94 93 93 94 96 97 99
83 82 81 80 79 78 77 77 77 77 77 78 78 78 78 77 77 77 76 75 74 73 73 72 72 72 72 73 74 75 75 76 77 77 77 78 79 79 80 81 82 82 83 83 83 83 83 84 84 85 86 86 88 89 91 92 94 95 96 97 97 98 98 98 98 98 99 99 100 102 103 104 105 104 102 100 97 96 96 97 97 98 100 101 103
Wind_Direction
223 221 218 216 216 218 220 220 219 220 223 226 229 230 232 234 235 235 236 237 238 239 241 244 247 251 255 258 262 268 273 277 280 285 294 306 316 322 326 330 334 337 339 338 337 338 341 343 344 344 344 344 345 346 347 350 352 354 357 358 357 357 0 7 15 18 17 16 16 16 17 18 17 15 18 21 22 22 21 23 26 26 22 17 13
227 225 222 219 217 219 221 222 221 221 223 226 230 232 233 235 237 238 239 240 240 240 242 244 246 250 253 256 260 264 270 274 277 281 288 298 306 314 319 325 331 334 335 334 333 336 340 343 343 341 341 342 343 345 347 350 352 354 357 356 354 356 359 5 13 16 15 15 14 13 12 12 11 11 13 14 15 16 18 19 23 27 27 22 17
231 231 227 223 221 221 223 225 223 222 224 226 230 233 235 236 238 240 241 242 242 243 243 245 247 250 253 255 258 262 266 271 274 278 285 292 300 307 314 321 327 331 332 330 330 335 339 342 341 338 338 340 341 343 346 350 352 354 357 355 352 356 359 3 9 12 13 13 12 12 10 7 6 7 8 6 7 10 13 14 16 21 25 24 20
233 234 231 227 224 223 225 228 227 225 224 226 229 233 236 237 239 241 242 243 245 246 247 248 249 252 254 255 257 260 263 266 269 273 280 287 294 301 309 316 322 326 326 325 327 332 337 339 337 335 335 337 340 342 346 349 352 354 355 352 350 356 360 1 4 5 7 10 11 11 11 8 5 4 3 4 3 3 7 11 9 10 18 22 22
233 235 235 231 226 225 226 229 230 228 225 226 229 233 235 238 239 241 243 245 247 248 249 250 252 254 255 256 257 259 262 264 266 268 274 282 288 296 305 312 317 320 320 320 322 328 333 335 333 332 332 335 338 341 345 348 351 352 353 349 347 355 358 357 357 358 2 10 13 13 11 10 8 4 1 0 359 357 359 4 6 10 16 15 13
233 235 236 233 229 227 227 230 231 230 226 225 228 232 235 238 239 241 244 246 248 250 251 252 254 255 257 258 259 260 262 263 264 265 269 276 283 291 300 307 313 314 314 314 318 324 329 330 329 328 329 332 335 338 343 347 350 351 349 344 343 350 353 352 351 351 357 6 13 15 14 10 8 6 0 356 355 353 351 356 8 14 5 352 346
234 234 236 235 232 229 229 231 233 232 228 225 226 230 234 237 239 241 244 246 248 250 252 253 255 256 257 258 259 260 261 262 263 264 266 272 279 287 295 303 308 309 307 309 314 320 324 325 325 325 326 329 332 336 341 345 348 349 346 339 338 342 345 345 344 345 351 360 5 8 8 1 357 358 357 353 353 352 348 354 2 356 343 335 329
235 234 235 235 234 231 231 232 235 235 233 229 227 229 233 236 238 241 243 245 247 250 252 254 254 255 257 258 260 260 261 261 262 263 266 270 276 283 291 298 304 304 302 304 310 316 320 321 321 322 323 325 330 334 339 343 347 348 343 334 332 335 337 339 340 341 347 356 359 358 358 355 348 347 349 351 352 353 352 351 347 339 333 329 326
236 235 235 235 235 233 232 233 236 237 237 234 230 229 232 234 237 239 242 243 246 249 251 253 254 255 257 259 260 260 261 262 262 263 266 270 275 281 288 295 299 299 298 301 307 311 315 317 318 318 319 322 326 331 336 341 345 345 340 329 325 329 331 332 333 336 341 348 350 347 345 346 345 342 343 347 350 350 347 344 339 335 333 330 328
235 234 234 235 235 235 234 234 235 237 239 237 235 232 233 234 236 238 241 243 246 248 250 251 253 255 257 259 259 260 261 262 262 263 266 270 275 280 285 291 295 295 296 299 303 307 310 312 314 314 315 318 323 329 334 339 342 342 337 324 318 320 323 323 323 325 329 335 340 342 337 336 341 339 338 343 346 342 340 340 339 338 338 334 331
234 234 234 234 235 237 237 235 234 236 238 239 239 236 235 235 237 238 240 242 244 246 248 250 253 255 256 258 258 259 261 262 262 263 266 270 274 278 282 287 291 292 294 298 301 304 306 308 310 310 311 315 320 326 331 336 338 338 332 319 311 311 313 314 314 315 319 324 335 343 340 334 335 336 337 339 341 340 340 340 339 339 338 336 335
234 234 235 235 236 237 238 237 235 234 236 239 240 240 239 238 238 239 240 241 243 245 247 249 252 253 255 256 257 258 259 260 260 262 265 269 272 275 278 283 287 289 292 295 298 301 303 304 306 307 308 312 317 323 328 332 334 334 328 315 305 304 307 308 309 312 316 319 327 339 342 337 332 331 333 334 339 342 340 336 335 337 337 336 335
235 235 234 235 236 237 239 238 236 235 235 238 240 242 242 242 241 241 242 243 244 245 246 248 250 252 254 255 256 257 256 257 259 262 265 267 269 271 274 279 283 287 289 292 296 298 299 301 304 305 306 310 314 319 324 328 330 329 324 313 302 300 304 306 307 310 312 315 321 329 337 338 333 329 329 331 338 341 337 334 337 340 341 340 337
237 235 234 234 235 237 239 239 238 237 236 237 239 241 243 244 244 245 245 246 246 247 248 248 249 251 253 254 256 256 256 256 258 261 263 265 266 268 271 276 279 283 286 289 293 296 296 298 301 303 304 307 312 316 321 324 325 324 321 312 301 297 301 303 304 306 306 309 317 324 330 334 332 330 329 328 332 335 335 337 340 343 342 338 335
238 235 234 233 234 236 238 238 239 239 238 237 237 239 242 244 245 246 248 249 250 251 251 251 251 251 252 254 256 256 257 257 258 260 262 263 264 267 270 273 277 281 283 285 290 293 294 295 298 300 301 305 309 313 318 321 321 319 316 310 300 295 296 297 297 299 299 303 311 319 324 327 327 327 327 324 323 327 329 330 334 337 337 335 334
238 235 233 232 232 234 236 238 238 239 239 238 238 239 241 243 246 248 250 251 253 254 254 254 254 254 254 254 256 257 258 258 259 260 261 262 264 266 269 272 276 278 279 282 287 290 290 291 295 297 299 301 306 310 314 317 316 314 311 305 297 291 289 290 291 293 295 298 302 310 317 322 323 322 322 319 316 315 316 318 324 331 333 333 334
238 235 232 231 231 232 233 236 237 237 238 238 238 239 241 243 246 248 251 252 254 256 257 258 258 257 255 255 255 256 257 258 259 260 261 263 265 267 269 272 274 275 276 279 284 287 288 289 292 294 296 299 303 307 311 313 313 310 306 301 294 288 285 287 289 289 291 292 295 304 313 317 317 316 318 319 319 320 322 323 324 327 329 329 331
238 236 233 231 230 230 231 233 235 236 237 238 238 239 240 242 245 247 250 252 255 257 259 260 259 257 256 255 254 254 255 256 257 259 261 263 266 267 269 271 272 272 274 277 282 284 285 286 289 291 293 296 300 304 307 309 309 306 302 297 291 286 284 286 288 289 291 292 296 303 309 312 316 320 324 327 328 328 328 327 326 326 328 328 328
238 236 234 232 231 230 231 232 233 236 239 239 239 240 241 242 244 246 248 251 253 255 256 257 256 256 256 255 255 255 255 255 257 259 260 263 265 267 269 270 271 271 272 275 280 282 283 285 287 288 290 293 297 301 304 305 305 303 299 294 289 285 284 287 290 293 294 297 301 307 313 318 323 327 328 328 329 329 328 327 328 329 330 329 328
237 236 235 234 233 232 231 232 233 235 238 240 241 242 243 244 245 247 248 249 250 251 252 253 253 254 254 255 256 256 256 256 257 258 260 262 264 266 268 269 269 269 271 274 278 280 281 282 284 285 287 290 295 298 301 302 302 300 296 291 287 284 285 289 294 298 300 303 307 311 315 318 321 323 323 324 326 327 328 328 329 330 330 330 329
236 236 235 234 233 232 232 232 232 234 237 239 241 242 243 244 245 246 247 247 248 248 249 250 250 252 253 254 254 255 256 257 257 259 260 261 263 265 267 268 268 269 271 274 277 278 279 281 282 283 285 289 292 296 298 299 298 297 294 289 284 282 285 290 295 299 302 307 310 312 314 316 318 320 321 323 325 327 328 329 330 331 331 329 327
236 234 233 232 231 231 231 231 232 233 235 237 239 240 241 242 242 243 244 245 245 246 247 247 248 249 250 252 253 254 255 256 257 259 260 261 262 264 265 266 267 268 271 274 275 276 276 278 279 281 284 288 291 294 296 297 296 295 291 287 282 281 284 290 294 297 301 305 309 311 313 316 318 320 322 323 326 327 328 328 330 331 330 329 327
237 234 232 231 231 230 230 231 231 231 233 235 236 237 239 239 240 240 242 243 243 244 244 246 247 248 249 250 251 252 254 255 257 258 259 260 261 262 264 265 266 268 271 272 273 273 275 276 278 280 283 287 290 293 295 296 295 293 290 286 282 281 284 289 294 297 299 302 305 308 311 314 317 319 321 323 325 327 327 327 328 329 330 328 326
242 239 236 234 232 232 231 231 230 230 232 233 234 235 237 238 239 239 240 241 243 243 244 245 246 247 249 250 251 252 254 255 257 257 258 259 260 261 263 264 266 268 269 270 270 271 273 274 276 279 283 286 289 291 293 294 294 291 288 285 281 280 284 289 293 296 298 301 302 305 309 312 314 316 319 321 324 325 326 326 327 329 329 327 324
244 242 240 237 235 233 232 231 231 230 231 233 233 235 236 237 238 239 240 241 242 243 244 245 247 249 250 251 253 254 255 256 257 258 258 259 260 261 262 264 265 266 267 268 269 270 272 274 277 279 282 285 288 291 292 293 291 289 287 285 281 280 283 287 291 295 298 299 301 304 307 310 312 314 317 320 322 323 324 325 326 328 328 326 323
243 242 241 239 237 235 233 232 231 231 231 233 234 235 237 238 240 241 242 243 244 244 245 247 249 250 252 253 254 255 256 257 258 258 258 258 259 260 261 262 263 264 265 266 268 270 272 274 277 280 282 285 288 290 291 291 289 288 286 284 280 279 282 286 289 294 297 298 300 303 306 308 310 312 315 318 320 321 322 323 324 325 326 324 323
245 243 243 241 240 238 235 234 233 232 233 234 236 237 239 240 242 243 244 246 247 247 248 250 251 252 253 254 254 255 256 256 257 257 258 258 258 259 259 260 262 264 265 267 269 271 273 276 278 281 283 285 288 289 290 289 288 287 285 282 279 279 281 285 288 292 296 298 300 302 304 306 308 311 314 317 319 320 321 321 322 323 324 323 321
247 245 244 243 242 240 238 235 234 234 234 236 237 239 240 242 243 245 246 247 249 250 251 252 252 252 253 253 253 254 254 255 255 256 256 257 258 259 260 262 264 265 267 269 271 273 275 277 279 281 283 285 287 288 288 288 287 285 283 280 278 279 281 283 287 292 295 297 299 301 303 305 307 310 313 315 318 319 319 320 320 322 323 322 320
247 246 244 243 242 241 239 237 236 235 236 237 238 239 241 243 245 246 248 249 250 251 251 252 252 253 254 254 253 253 253 254 254 255 256 257 258 260 262 264 265 267 269 271 273 275 277 279 281 282 284 286 287 287 287 286 285 283 281 279 278 279 281 283 287 291 294 296 298 300 302 304 306 309 311 314 316 317 318 319 319 321 322 321 320
247 246 244 242 241 240 239 238 237 237 237 238 240 241 242 243 245 246 248 249 250 251 252 252 253 254 254 254 254 254 254 254 255 256 257 258 260 262 264 266 268 270 272 273 275 277 278 280 282 283 284 285 286 286 285 284 282 280 279 278 278 279 281 283 287 291 293 295 297 299 301 302 305 307 310 312 314 316 317 318 319 320 321 320 319
247 246 244 242 240 240 240 239 238 238 238 239 240 241 243 244 245 246 247 249 250 251 252 253 254 254 254 254 254 255 256 257 257 258 259 261 262 264 266 268 270 271 273 275 277 278 280 281 282 283 283 284 284 284 282 280 279 278 278 278 278 280 282 284 287 290 291 293 295 297 299 301 303 306 308 310 313 314 315 316 318 319 320 320 319
247 246 245 243 241 239 239 239 239 239 239 240 240 242 243 244 245 246 247 248 249 250 251 252 253 253 253 253 254 256 258 260 261 261 262 264 265 266 268 269 270 272 274 276 278 279 280 280 280 281 281 281 281 281 279 278 277 278 278 278 279 280 283 285 287 288 289 291 293 296 298 300 302 304 307 309 311 312 313 314 316 318 319 320 319
247 247 247 246 244 242 240 239 239 240 240 240 241 241 242 243 245 246 247 247 248 249 250 251 252 252 253 254 256 258 259 261 262 263 264 266 267 268 269 271 272 274 276 277 278 278 278 278 279 279 279 279 279 278 277 278 278 278 278 279 280 282 284 285 286 287 289 290 292 294 297 300 301 304 306 308 309 311 311 313 314 316 317 319 318
245 246 247 247 247 246 244 242 241 241 242 242 242 242 242 243 244 245 246 247 248 249 250 251 251 252 253 254 256 258 260 261 263 265 266 267 269 270 271 273 274 276 276 277 277 277 277 277 277 277 277 277 277 278 278 279 280 279 279 280 282 284 285 286 286 287 288 289 291 294 297 299 300 303 305 306 308 309 310 311 313 314 316 318 318
242 243 244 245 245 246 245 245 244 243 243 244 244 244 244 244 244 245 246 247 248 249 250 251 252 252 253 255 256 258 260 262 264 265 267 268 270 271 273 274 275 276 277 277 277 277 277 277 277 277 278 278 278 279 280 280 280 280 281 282 283 285 286 286 285 285 287 290 292 294 296 298 299 301 304 305 307 308 309 310 312 313 315 317 317
240 241 242 243 244 244 244 245 245 245 245 246 246 246 247 247 247 247 247 247 248 249 251 252 253 254 255 256 257 259 260 262 264 265 267 269 270 272 273 274 275 276 276 277 278 278 278 278 277 279 281 281 279 279 281 281 280 280 281 283 284 284 283 282 282 284 288 291 293 294 295 297 299 300 303 304 305 307 308 309 310 312 313 315 315
239 239 240 241 242 243 244 244 244 245 245 246 247 247 248 248 249 249 249 249 250 250 251 252 253 254 255 256 258 259 261 263 264 266 267 269 270 271 273 274 275 276 277 277 277 276 276 276 276 278 280 280 279 280 282 281 281 281 281 282 282 281 280 280 282 286 289 292 293 294 296 297 299 301 302 304 305 306 307 308 309 311 312 313 313
239 239 240 240 241 242 243 244 244 245 245 246 246 247 248 248 249 250 250 250 251 251 252 253 254 255 256 257 259 260 261 263 264 266 267 269 270 272 273 273 273 273 275 276 276 274 274 274 274 275 276 276 278 281 283 283 282 282 281 282 282 281 281 282 285 288 290 292 294 295 296 298 299 301 302 303 305 306 306 307 308 309 311 312 312
238 239 240 240 241 241 242 243 244 245 245 246 246 247 247 248 249 249 250 251 251 252 252 253 254 256 257 258 259 261 262 263 264 265 266 268 269 270 271 271 271 270 271 273 275 276 276 276 276 275 275 276 279 281 282 282 281 281 280 281 281 281 282 284 286 289 291 293 294 296 297 298 299 301 301 303 304 304 305 306 307 308 310 311 310
238 239 240 240 241 241 241 242 242 243 244 245 246 247 247 248 249 250 250 251 251 252 252 253 254 255 256 258 260 261 262 263 264 266 266 266 265 264 264 266 267 268 270 272 274 274 275 277 278 279 280 280 280 280 280 280 281 281 282 283 284 285 286 288 289 291 292 293 294 295 297 298 299 300 301 302 303 303 303 304 305 307 309 309 307
239 240 240 240 241 241 241 242 242 242 243 243 244 246 247 248 248 249 249 250 250 251 252 252 253 255 257 258 260 260 260 260 261 263 264 265 265 263 261 261 262 265 268 271 273 274 275 276 277 278 279 280 280 279 279 280 282 284 285 285 286 287 288 289 290 291 292 293 294 295 296 297 298 299 300 301 302 302 303 303 305 306 307 308 305
240 240 240 240 241 242 242 243 243 243 244 244 244 244 245 246 246 247 248 248 249 250 250 251 253 255 257 257 257 258 258 258 257 256 256 259 262 263 263 262 263 266 270 273 274 275 275 275 275 275 275 276 276 277 278 280 282 283 284 284 285 286 287 288 289 290 291 292 293 294 295 296 298 299 300 300 301 301 302 303 304 306 307 306 304
240 241 240 240 241 241 242 243 244 245 246 246 246 246 246 246 246 247 247 247 248 248 249 251 252 254 254 254 254 255 258 263 266 266 262 260 261 262 263 263 265 267 270 271 272 273 274 274 274 274 273 274 275 276 278 280 281 282 283 285 285 286 287 288 288 289 290 291 292 294 295 296 297 298 299 299 300 300 301 302 304 305 305 304 303
240 241 241 240 240 241 242 243 244 246 247 248 248 249 249 249 249 249 249 249 248 248 249 250 251 251 251 252 253 254 256 258 263 265 263 261 260 260 260 261 264 266 268 270 271 272 272 273 273 273 274 274 276 277 278 279 281 282 284 285 286 286 287 287 288 289 290 291 292 294 295 296 297 297 298 298 299 299 301 302 303 304 304 304 304
241 241 241 241 241 241 241 243 244 245 247 248 249 250 251 251 251 251 251 251 251 251 250 251 251 251 250 251 254 256 255 253 252 254 255 256 258 259 260 262 265 266 268 269 270 271 272 273 274 274 274 275 275 276 277 278 280 282 284 285 285 285 286 286 287 289 290 291 293 294 295 296 296 296 296 297 298 299 300 301 302 302 303 303 303
241 242 242 242 242 242 242 242 243 245 246 247 248 250 251 251 252 252 253 253 254 254 253 252 253 253 252 252 253 255 256 255 255 256 256 257 259 260 261 263 265 266 267 268 270 271 272 273 274 274 275 275 276 277 279 280 282 283 283 284 284 284 284 286 287 289 291 292 293 294 294 295 295 295 296 296 297 298 299 300 301 301 301 302 303
242 242 243 243 243 243 243 243 244 245 246 247 248 249 250 251 252 253 253 254 254 255 255 254 254 254 254 255 255 256 258 259 259 260 260 261 262 263 263 264 266 267 268 269 270 271 271 272 273 274 276 277 278 279 280 281 282 283 283 282 283 283 285 286 288 290 291 292 293 293 294 294 294 294 295 295 296 298 299 300 300 301 301 302 303
244 244 244 244 244 244 244 245 245 246 246 247 248 249 250 251 251 252 253 254 255 255 256 256 256 256 256 256 257 258 259 261 262 263 264 265 265 266 266 267 268 268 269 270 271 272 273 274 275 276 277 278 279 280 281 281 281 281 281 282 283 285 286 288 289 290 291 292 293 293 293 293 293 293 294 295 297 298 299 299 300 301 301 302 304
247 247 247 246 245 245 245 245 246 247 247 248 248 249 249 250 251 252 252 253 254 255 256 257 257 258 258 258 259 259 260 261 262 263 264 265 266 267 268 268 269 269 270 271 272 273 274 275 276 277 277 278 279 279 280 280 280 281 282 283 285 286 287 288 289 290 291 292 292 292 292 292 292 293 295 296 297 297 298 299 300 301 302 303 303
249 249 248 248 247 247 247 247 247 247 247 247 248 249 249 250 251 252 252 253 254 255 255 256 257 258 259 259 260 260 261 261 261 262 262 263 264 265 266 267 268 269 270 271 273 274 274 275 276 276 277 278 278 279 279 280 281 282 284 285 286 287 287 288 289 290 291 291 291 291 291 292 292 294 295 296 296 296 297 298 300 301 301 302 303
249 249 248 248 248 248 248 248 248 247 247 247 247 248 249 250 251 252 253 254 254 255 255 256 257 258 259 260 260 261 261 262 262 262 262 262 263 264 265 266 267 268 270 271 272 273 274 275 275 276 277 278 278 279 280 281 282 283 284 285 285 286 287 288 289 290 290 290 290 291 291 291 292 294 295 295 296 297 298 299 300 300 300 301 301
Height
10979 10980 10982 10985 10986 10987 10988 10990 10992 10995 10996 10997 10999 11001 11002 11003 11005 11006 11007 11008 11009 11010 11010 11011 11011 11012 11012 11012 11013 11013 11013 11013 11013 11013 11013 11013 11013 11012 11012 11011 11011 11010 11010 11009 11007 11007 11006 11005 11004 11002 11001 11000 10999 10997 10996 10994 10992 10990 10987 10985 10983 10981 10979 10978 10976 10975 10973 10972 10970 10968 10967 10965 10963 10960 10958 10956 10954 10952 10949 10947 10945 10944 10942 10940 10938
10976 10978 10980 10982 10984 10985 10986 10987 10990 10992 10993 10995 10996 10998 11000 11001 11002 11004 11005 11006 11007 11008 11008 11009 11010 11010 11011 11011 11011 11011 11011 11012 11012 11012 11012 11012 11012 11012 11011 11011 11010 11009 11009 11008 11007 11006 11005 11004 11003 11002 11000 11000 10998 10997 10995 10994 10992 10989 10987 10985 10983 10981 10980 10978 10977 10975 10974 10972 10970 10968 10966 10964 10962 10960 10958 10956 10954 10952 10949 10947 10945 10944 10943 10942 10941
10974 10976 10978 10980 10982 10983 10984 10985 10987 10989 10991 10992 10994 10995 10997 10999 11000 11002 11003 11004 11005 11006 11007 11007 11008 11009 11009 11010 11010 11010 11010 11010 11010 11011 11011 11011 11011 11011 11010 11009 11009 11008 11007 11006 11005 11005 11004 11003 11002 11000 10999 10999 10997 10996 10995 10993 10991 10989 10987 10985 10983 10982 10980 10978 10977 10976 10974 10973 10971 10969 10966 10963 10961 10959 10957 10955 10953 10951 10948 10946 10944 10943 10942 10942 10941
10971 10973 10975 10978 10980 10981 10981 10982 10984 10986 10988 10990 10991 10992 10994 10996 10998 10999 11001 11002 11003 11004 11005 11006 11006 11007 11008 11008 11008 11009 11009 11009 11009 11009 11010 11010 11009 11009 11008 11008 11007 11007 11006 11005 11004 11004 11003 11002 11001 10999 10998 10998 10996 10995 10994 10992 10990 10988 10987 10985 10983 10981 10980 10978 10977 10976 10974 10973 10971 10969 10967 10963 10961 10958 10956 10954 10951 10949 10948 10946 10944 10943 10942 10941 10941
10969 10970 10972 10975 10977 10978 10979 10979 10981 10983 10985 10987 10988 10990 10991 10993 10995 10997 10998 11000 11001 11002 11003 11004 11005 11005 11006 11006 11006 11007 11007 11007 11007 11008 11008 11008 11008 11007 11007 11006 11006 11005 11004 11003 11003 11002 11001 11000 10999 10998 10997 10996 10995 10994 10993 10992 10990 10988 10986 10985 10983 10982 10980 10978 10977 10976 10974 10973 10971 10969 10967 10964 10961 10958 10955 10953 10951 10949 10947 10946 10945 10944 10943 10942 10941
10966 10967 10969 10972 10973 10975 10976 10976 10977 10979 10982 10984 10986 10987 10988 10990 10992 10994 10995 10997 10998 11000 11001 11002 11003 11003 11003 11004 11004 11004 11005 11005 11005 11006 11006 11006 11006 11006 11005 11005 11004 11003 11003 11002 11001 11001 11000 10998 10997 10996 10995 10994 10994 10993 10992 10991 10989 10987 10986 10985 10983 10981 10980 10979 10977 10976 10974 10973 10971 10969 10967 10965 10962 10960 10957 10954 10952 10949 10946 10945 10945 10944 10943 10941 10940
10962 10964 10966 10968 10970 10971 10972 10972 10974 10976 10979 10982 10983 10984 10985 10987 10989 10991 10992 10994 10995 10997 10998 11000 11001 11001 11001 11002 11002 11002 11003 11003 11003 11004 11004 11004 11004 11004 11003 11003 11002 11002 11001 11000 10999 10999 10998 10996 10995 10994 10993 10993 10992 10991 10990 10989 10988 10986 10985 10983 10982 10980 10979 10978 10976 10975 10973 10972 10970 10969 10967 10964 10962 10960 10958 10955 10952 10949 10946 10944 10944 10943 10941 10939 10937
10958 10960 10962 10964 10966 10967 10969 10969 10971 10973 10976 10979 10980 10981 10982 10984 10986 10987 10989 10991 10992 10994 10996 10997 10998 10998 10998 10999 11000 11000 11000 11001 11001 11001 11001 11002 11002 11002 11001 11001 11000 11000 10999 10998 10997 10997 10996 10994 10993 10992 10991 10990 10990 10989 10988 10987 10986 10985 10983 10982 10980 10978 10977 10976 10975 10974 10972 10970 10969 10967 10965 10963 10961 10959 10957 10954 10952 10949 10947 10945 10944 10942 10939 10936 10933
10954 10956 10958 10959 10961 10964 10966 10967 10968 10970 10973 10975 10976 10977 10978 10980 10982 10984 10985 10987 10989 10991 10992 10993 10994 10995 10996 10997 10997 10998 10998 10998 10999 10998 10999 10999 10999 10999 10999 10998 10998 10997 10997 10996 10996 10995 10994 10992 10991 10990 10989 10988 10987 10987 10986 10985 10984 10983 10982 10980 10978 10977 10975 10974 10973 10972 10971 10969 10967 10966 10964 10962 10960 10958 10955 10953 10951 10948 10946 10945 10943 10941 10938 10934 10931
10949 10951 10953 10955 10957 10960 10962 10964 10966 10967 10969 10970 10972 10973 10975 10976 10978 10980 10982 10984 10986 10987 10988 10990 10991 10992 10993 10994 10994 10995 10996 10996 10996 10996 10996 10996 10996 10996 10995 10995 10995 10995 10995 10994 10994 10993 10992 10991 10989 10988 10987 10986 10985 10984 10984 10983 10982 10981 10980 10979 10977 10975 10974 10972 10972 10971 10970 10968 10966 10964 10962 10960 10958 10956 10953 10951 10949 10947 10944 10942 10939 10936 10933 10930 10927
10944 10946 10948 10951 10954 10957 10959 10960 10962 10963 10964 10966 10968 10970 10971 10973 10974 10976 10978 10980 10982 10983 10984 10986 10987 10988 10989 10990 10991 10992 10993 10994 10993 10993 10993 10993 10993 10992 10992 10992 10992 10992 10992 10992 10991 10991 10990 10989 10987 10986 10985 10984 10983 10982 10981 10981 10980 10979 10978 10977 10975 10974 10972 10971 10970 10969 10968 10966 10965 10963 10960 10957 10956 10954 10951 10949 10947 10943 10938 10936 10934 10931 10929 10926 10923
10940 10942 10945 10948 10951 10953 10954 10956 10958 10959 10960 10962 10964 10966 10968 10969 10970 10972 10974 10976 10978 10979 10980 10982 10983 10985 10986 10987 10988 10989 10990 10991 10990 10990 10990 10990 10989 10989 10989 10989 10989 10989 10989 10989 10988 10988 10987 10986 10985 10984 10983 10981 10980 10980 10979 10978 10978 10977 10976 10975 10973 10972 10970 10969 10967 10966 10965 10963 10962 10961 10959 10956 10954 10951 10950 10947 10944 10940 10933 10930 10931 10928 10925 10923 10920
10936 10938 10942 10945 10947 10948 10950 10952 10954 10955 10957 10958 10960 10962 10963 10965 10966 10968 10970 10972 10974 10975 10976 10978 10980 10981 10982 10983 10984 10986 10987 10987 10987 10987 10987 10987 10986 10986 10986 10986 10986 10987 10987 10986 10986 10985 10984 10983 10982 10981 10980 10979 10978 10977 10976 10975 10975 10974 10974 10973 10971 10969 10968 10967 10965 10963 10962 10960 10960 10959 10957 10955 10952 10950 10948 10945 10944 10941 10933 10926 10926 10924 10920 10918 10916
10932 10935 10938 10941 10943 10944 10946 10948 10949 10951 10953 10955 10957 10958 10959 10960 10962 10964 10966 10968 10969 10970 10972 10974 10976 10977 10978 10979 10980 10982 10983 10984 10983 10984 10984 10983 10983 10983 10983 10984 10984 10984 10984 10983 10983 10982 10981 10980 10979 10978 10977 10976 10975 10974 10973 10972 10971 10971 10971 10970 10969 10967 10966 10964 10962 10961 10959 10957 10957 10956 10955 10953 10951 10949 10947 10944 10943 10941 10932 10923 10922 10922 10919 10916 10914
10927 10930 10933 10936 10938 10940 10941 10943 10945 10947 10949 10951 10952 10953 10954 10956 10958 10960 10962 10963 10965 10966 10968 10970 10972 10973 10974 10975 10976 10978 10979 10980 10980 10980 10980 10979 10979 10979 10981 10981 10981 10981 10981 10980 10980 10979 10978 10977 10976 10975 10974 10973 10972 10970 10970 10969 10967 10967 10967 10967 10966 10965 10963 10962 10961 10959 10957 10955 10955 10953 10952 10951 10949 10947 10946 10943 10942 10940 10933 10925 10923 10922 10918 10914 10911
10923 10926 10928 10930 10933 10935 10937 10939 10941 10943 10945 10946 10947 10948 10950 10952 10954 10956 10958 10959 10961 10962 10964 10966 10968 10969 10970 10971 10972 10973 10975 10975 10975 10975 10975 10975 10975 10976 10977 10977 10978 10978 10978 10977 10976 10976 10975 10974 10973 10973 10971 10970 10969 10967 10966 10965 10964 10963 10963 10963 10963 10962 10961 10960 10959 10957 10955 10954 10953 10952 10950 10948 10945 10944 10943 10942 10941 10938 10933 10927 10924 10921 10918 10914 10910
10918 10920 10922 10925 10927 10929 10932 10934 10936 10938 10940 10941 10942 10944 10946 10949 10951 10952 10954 10955 10956 10958 10960 10962 10964 10965 10966 10966 10967 10968 10970 10970 10970 10970 10970 10970 10971 10972 10973 10974 10974 10974 10975 10974 10973 10972 10971 10971 10970 10970 10969 10967 10966 10964 10963 10962 10961 10960 10960 10960 10960 10959 10958 10957 10956 10954 10952 10951 10951 10949 10947 10944 10942 10941 10939 10937 10935 10933 10929 10924 10921 10918 10916 10914 10910
10912 10914 10917 10919 10922 10924 10927 10929 10932 10933 10935 10936 10938 10940 10942 10945 10947 10948 10949 10951 10952 10954 10956 10958 10959 10960 10960 10961 10962 10963 10965 10965 10965 10965 10966 10966 10966 10968 10969 10969 10970 10971 10971 10970 10969 10969 10968 10967 10967 10966 10965 10964 10962 10961 10959 10958 10958 10957 10956 10956 10956 10956 10955 10954 10952 10951 10949 10948 10947 10944 10943 10940 10938 10935 10932 10929 10928 10926 10923 10921 10918 10915 10912 10909 10907
10907 10908 10911 10914 10917 10919 10922 10925 10927 10929 10930 10932 10934 10936 10938 10940 10942 10943 10944 10946 10948 10949 10951 10952 10953 10954 10954 10955 10956 10958 10959 10960 10960 10960 10961 10961 10961 10963 10964 10965 10965 10967 10967 10966 10965 10965 10964 10964 10963 10963 10962 10961 10959 10958 10956 10955 10954 10953 10952 10952 10952 10952 10951 10950 10948 10946 10944 10944 10942 10939 10936 10934 10931 10928 10925 10923 10922 10920 10918 10916 10913 10910 10908 10903 10900
10901 10903 10906 10910 10912 10915 10918 10920 10922 10924 10925 10927 10930 10932 10934 10936 10937 10938 10939 10941 10942 10944 10945 10946 10947 10948 10949 10950 10951 10952 10954 10955 10955 10955 10956 10956 10957 10958 10959 10960 10961 10962 10962 10962 10961 10961 10960 10960 10959 10959 10958 10958 10956 10955 10953 10951 10950 10949 10948 10948 10947 10947 10947 10946 10944 10941 10939 10938 10937 10935 10932 10929 10927 10925 10923 10920 10918 10915 10912 10910 10907 10905 10902 10899 10894
10897 10899 10902 10904 10907 10909 10912 10915 10917 10919 10921 10923 10925 10927 10929 10930 10931 10932 10933 10935 10936 10938 10939 10940 10941 10942 10943 10944 10946 10947 10948 10950 10950 10950 10951 10952 10952 10953 10954 10955 10956 10957 10957 10957 10956 10956 10956 10956 10955 10954 10954 10953 10953 10951 10950 10948 10947 10946 10945 10944 10943 10943 10942 10941 10940 10938 10935 10932 10931 10929 10928 10925 10923 10921 10918 10916 10913 10910 10906 10903 10901 10897 10894 10892 10890
10892 10894 10896 10898 10900 10903 10906 10909 10912 10914 10917 10919 10920 10921 10923 10924 10925 10926 10928 10929 10930 10932 10933 10934 10935 10937 10938 10939 10940 10942 10943 10944 10945 10945 10946 10947 10948 10948 10949 10950 10951 10952 10952 10952 10952 10952 10952 10951 10951 10950 10949 10949 10948 10947 10946 10945 10944 10943 10941 10940 10939 10939 10938 10937 10936 10935 10932 10929 10927 10925 10923 10921 10918 10916 10914 10911 10909 10905 10902 10898 10895 10892 10888 10883 10880
10886 10888 10889 10892 10894 10897 10900 10903 10906 10909 10911 10913 10914 10916 10917 10918 10919 10920 10922 10923 10925 10926 10927 10929 10930 10931 10933 10934 10935 10937 10938 10939 10940 10940 10941 10942 10943 10943 10944 10945 10946 10946 10946 10946 10947 10947 10947 10947 10946 10945 10945 10944 10943 10942 10942 10941 10940 10938 10937 10936 10935 10934 10933 10932 10931 10930 10929 10927 10924 10922 10920 10918 10915 10913 10910 10907 10905 10901 10898 10894 10891 10888 10883 10878 10873
10881 10883 10884 10887 10889 10892 10895 10898 10901 10904 10906 10907 10909 10910 10911 10912 10913 10915 10916 10918 10920 10921 10922 10924 10925 10926 10928 10929 10931 10932 10933 10934 10935 10935 10936 10937 10938 10938 10939 10940 10941 10941 10941 10941 10942 10942 10942 10942 10941 10941 10940 10939 10938 10937 10936 10936 10935 10933 10932 10932 10931 10929 10928 10927 10927 10926 10924 10922 10920 10918 10916 10915 10912 10910 10907 10904 10902 10899 10895 10891 10887 10884 10880 10875 10869
10876 10878 10880 10882 10884 10887 10890 10893 10895 10898 10900 10902 10903 10904 10905 10906 10908 10910 10912 10913 10915 10917 10918 10919 10920 10922 10924 10925 10927 10928 10929 10929 10930 10931 10931 10932 10933 10933 10934 10934 10935 10935 10936 10936 10936 10937 10937 10937 10936 10936 10935 10934 10933 10932 10931 10931 10930 10929 10928 10927 10926 10925 10924 10923 10922 10921 10920 10918 10916 10914 10912 10911 10908 10906 10904 10901 10899 10896 10893 10889 10885 10881 10878 10873 10867
10871 10873 10875 10877 10879 10882 10884 10887 10889 10892 10894 10896 10897 10898 10900 10901 10903 10905 10907 10909 10910 10912 10914 10915 10916 10918 10920 10921 10923 10924 10925 10925 10925 10926 10926 10927 10927 10928 10928 10929 10929 10930 10930 10931 10931 10931 10931 10931 10931 10930 10930 10929 10928 10927 10927 10926 10925 10924 10923 10922 10921 10920 10919 10918 10917 10916 10915 10913 10911 10910 10908 10906 10904 10902 10900 10898 10896 10893 10890 10887 10883 10879 10876 10872 10868
10866 10868 10870 10872 10874 10876 10879 10881 10884 10887 10888 10890 10892 10893 10895 10896 10899 10901 10903 10904 10906 10908 10910 10911 10912 10914 10916 10917 10919 10920 10920 10920 10920 10921 10921 10921 10922 10922 10923 10923 10924 10924 10925 10925 10926 10926 10926 10926 10925 10925 10924 10924 10923 10922 10922 10921 10920 10918 10917 10916 10916 10915 10914 10913 10913 10912 10910 10908 10906 10905 10903 10902 10899 10897 10895 10893 10891 10889 10886 10883 10880 10877 10873 10870 10866
10862 10863 10865 10867 10869 10871 10873 10876 10879 10881 10883 10884 10886 10888 10890 10892 10894 10896 10898 10900 10902 10904 10906 10907 10908 10909 10911 10912 10913 10914 10915 10915 10916 10916 10917 10917 10916 10917 10917 10918 10919 10919 10919 10920 10920 10920 10920 10920 10919 10919 10919 10918 10918 10917 10916 10915 10914 10912 10911 10911 10910 10910 10909 10908 10908 10907 10905 10903 10901 10900 10898 10896 10894 10892 10890 10888 10886 10884 10881 10878 10875 10872 10869 10865 10862
10857 10859 10861 10863 10864 10866 10868 10871 10873 10875 10877 10878 10880 10882 10885 10887 10889 10891 10893 10895 10897 10899 10901 10902 10903 10905 10906 10907 10908 10909 10909 10910 10911 10912 10912 10912 10912 10912 10912 10913 10914 10914 10914 10914 10914 10914 10913 10913 10913 10912 10912 10912 10911 10911 10910 10909 10907 10906 10905 10905 10905 10904 10904 10903 10903 10901 10899 10897 10896 10894 10893 10891 10889 10887 10884 10882 10880 10878 10876 10873 10870 10867 10863 10859 10855
10851 10853 10855 10858 10860 10861 10863 10865 10867 10869 10871 10872 10874 10877 10879 10881 10883 10886 10888 10890 10892 10894 10895 10897 10898 10900 10901 10901 10902 10903 10904 10905 10906 10907 10907 10907 10908 10908 10908 10908 10908 10909 10908 10908 10908 10907 10907 10906 10906 10905 10905 10904 10904 10903 10903 10902 10901 10900 10900 10900 10899 10899 10898 10898 10897 10896 10894 10892 10891 10889 10887 10885 10883 10881 10879 10877 10875 10872 10869 10866 10864 10861 10857 10853 10849
10846 10847 10850 10852 10855 10856 10858 10859 10861 10863 10865 10866 10869 10871 10873 10875 10878 10880 10882 10884 10886 10888 10890 10891 10893 10894 10895 10895 10896 10897 10898 10900 10901 10901 10902 10902 10903 10903 10903 10903 10903 10903 10902 10902 10901 10901 10900 10899 10898 10898 10897 10897 10897 10896 10895 10895 10894 10894 10894 10894 10893 10893 10892 10892 10891 10890 10888 10886 10885 10884 10882 10880 10878 10876 10874 10872 10870 10867 10863 10860 10857 10854 10851 10847 10843
10840 10842 10844 10846 10849 10851 10853 10854 10856 10857 10859 10861 10863 10865 10868 10870 10872 10874 10876 10878 10880 10882 10883 10885 10887 10888 10889 10889 10890 10891 10892 10894 10895 10896 10896 10897 10897 10897 10898 10898 10897 10897 10896 10896 10895 10894 10893 10892 10891 10891 10891 10890 10890 10889 10889 10889 10889 10889 10889 10889 10888 10887 10886 10886 10885 10883 10882 10880 10879 10878 10876 10873 10872 10870 10868 10866 10864 10861 10858 10855 10852 10849 10845 10841 10837
10834 10836 10838 10840 10842 10845 10847 10849 10850 10852 10853 10855 10857 10859 10861 10863 10866 10868 10870 10872 10873 10875 10876 10878 10880 10882 10883 10883 10884 10886 10887 10888 10889 10890 10890 10891 10891 10891 10891 10891 10891 10891 10890 10889 10888 10887 10886 10885 10885 10885 10885 10884 10883 10883 10883 10883 10883 10883 10883 10882 10881 10880 10880 10879 10878 10876 10875 10874 10873 10871 10869 10867 10865 10863 10861 10859 10857 10854 10851 10848 10846 10843 10840 10836 10832
10829 10830 10832 10834 10836 10838 10840 10843 10845 10846 10848 10849 10851 10853 10855 10857 10859 10861 10863 10865 10866 10868 10870 10872 10874 10875 10877 10878 10879 10880 10881 10882 10883 10884 10884 10884 10884 10884 10885 10884 10884 10884 10883 10882 10881 10880 10879 10879 10878 10878 10878 10877 10877 10877 10877 10877 10877 10877 10877 10876 10875 10874 10873 10872 10870 10869 10868 10867 10866 10864 10862 10860 10858 10856 10853 10851 10849 10846 10844 10842 10839 10837 10834 10831 10827
10823 10825 10826 10828 10830 10832 10834 10836 10838 10840 10842 10843 10845 10847 10849 10851 10853 10855 10857 10858 10860 10862 10864 10865 10867 10869 10871 10872 10873 10874 10875 10876 10877 10877 10877 10877 10877 10878 10878 10878 10877 10876 10875 10875 10874 10873 10871 10871 10871 10871 10870 10870 10870 10870 10871 10871 10871 10870 10870 10869 10868 10867 10865 10864 10863 10862 10861 10860 10859 10857 10855 10853 10851 10849 10846 10844 10841 10839 10836 10834 10832 10830 10827 10824 10821
10817 10819 10821 10822 10824 10826 10828 10830 10832 10834 10836 10837 10839 10841 10843 10845 10847 10848 10850 10852 10854 10856 10857 10859 10861 10863 10864 10866 10867 10868 10869 10870 10870 10870 10870 10871 10871 10871 10871 10870 10869 10869 10868 10868 10868 10867 10864 10864 10865 10865 10864 10864 10864 10864 10864 10864 10864 10863 10863 10862 10861 10860 10858 10857 10856 10855 10854 10853 10851 10849 10848 10846 10844 10842 10839 10837 10835 10832 10830 10827 10825 10823 10821 10818 10814
10810 10813 10815 10817 10819 10820 10822 10824 10826 10828 10830 10832 10834 10835 10837 10838 10840 10842 10844 10846 10848 10849 10851 10853 10855 10856 10858 10859 10860 10862 10863 10863 10864 10864 10864 10863 10863 10864 10863 10863 10862 10861 10860 10861 10862 10862 10860 10859 10859 10859 10858 10858 10857 10857 10857 10857 10856 10856 10855 10854 10853 10852 10851 10849 10848 10847 10846 10845 10843 10841 10840 10838 10835 10833 10831 10829 10827 10825 10822 10819 10818 10816 10814 10811 10808
10804 10806 10808 10811 10813 10815 10817 10819 10821 10823 10825 10827 10828 10830 10831 10832 10834 10836 10837 10839 10841 10843 10845 10847 10848 10850 10851 10853 10854 10855 10856 10857 10857 10857 10856 10856 10856 10856 10855 10854 10854 10854 10853 10852 10852 10854 10854 10854 10854 10853 10852 10852 10851 10850 10850 10849 10849 10848 10847 10846 10845 10844 10843 10842 10840 10839 10837 10836 10834 10833 10831 10829 10827 10825 10823 10821 10819 10817 10814 10812 10809 10808 10806 10803 10800
10797 10800 10802 10805 10807 10809 10811 10814 10815 10817 10819 10821 10822 10824 10825 10826 10828 10830 10832 10834 10836 10837 10839 10841 10842 10844 10845 10847 10848 10849 10849 10850 10850 10849 10848 10848 10848 10848 10846 10845 10846 10847 10847 10845 10845 10845 10846 10846 10846 10846 10846 10845 10844 10844 10843 10842 10841 10840 10839 10838 10837 10836 10835 10833 10832 10830 10828 10826 10825 10823 10822 10820 10818 10816 10814 10812 10810 10808 10806 10803 10801 10799 10798 10795 10792
10791 10793 10796 10798 10800 10803 10805 10807 10809 10811 10813 10815 10816 10817 10819 10821 10823 10824 10827 10829 10830 10832 10833 10835 10836 10838 10839 10840 10842 10842 10842 10842 10842 10841 10840 10839 10840 10841 10841 10841 10841 10841 10841 10841 10840 10839 10839 10838 10838 10838 10838 10838 10837 10836 10835 10833 10832 10831 10830 10829 10828 10827 10826 10824 10822 10821 10819 10817 10815 10814 10813 10811 10809 10807 10805 10803 10801 10799 10796 10795 10793 10791 10789 10787 10784
10784 10786 10789 10791 10793 10796 10798 10800 10802 10805 10807 10808 10810 10812 10813 10815 10817 10818 10821 10823 10825 10826 10828 10829 10830 10832 10833 10834 10834 10834 10833 10833 10834 10834 10832 10832 10832 10834 10835 10835 10835 10834 10834 10834 10835 10834 10833 10833 10833 10832 10831 10830 10830 10828 10826 10825 10824 10823 10822 10820 10819 10817 10816 10815 10813 10811 10810 10808 10807 10805 10803 10801 10800 10798 10796 10794 10791 10789 10787 10785 10783 10782 10780 10778 10775
10776 10779 10782 10784 10786 10789 10791 10793 10796 10798 10800 10802 10804 10805 10807 10809 10810 10812 10815 10817 10819 10821 10822 10823 10824 10826 10828 10827 10827 10826 10825 10824 10826 10827 10827 10826 10827 10826 10826 10827 10827 10827 10827 10828 10829 10829 10828 10828 10827 10826 10825 10824 10822 10820 10818 10817 10816 10815 10814 10812 10810 10809 10807 10806 10804 10803 10801 10799 10797 10795 10794 10792 10790 10788 10786 10784 10781 10779 10777 10775 10773 10772 10770 10769 10766
10769 10772 10774 10777 10779 10782 10784 10786 10789 10791 10793 10794 10796 10798 10799 10801 10803 10805 10808 10810 10812 10815 10816 10817 10818 10820 10820 10818 10817 10818 10817 10816 10818 10819 10820 10820 10821 10821 10821 10821 10821 10821 10821 10822 10822 10822 10821 10820 10819 10819 10817 10815 10814 10812 10810 10809 10807 10806 10804 10803 10801 10799 10798 10796 10794 10793 10791 10789 10788 10785 10784 10782 10780 10778 10776 10773 10770 10768 10766 10764 10763 10761 10759 10758 10756
10760 10763 10766 10769 10772 10774 10777 10779 10782 10784 10785 10787 10788 10790 10791 10793 10796 10798 10800 10802 10805 10808 10809 10810 10811 10813 10811 10808 10807 10809 10810 10811 10812 10812 10812 10812 10814 10814 10814 10814 10814 10814 10814 10814 10814 10813 10812 10811 10810 10809 10807 10806 10804 10802 10801 10799 10797 10796 10794 10793 10791 10789 10788 10786 10785 10783 10781 10779 10777 10775 10773 10771 10770 10767 10765 10762 10760 10757 10755 10754 10752 10750 10748 10746 10745
10751 10755 10758 10761 10764 10766 10769 10772 10774 10776 10778 10779 10781 10782 10784 10786 10788 10791 10793 10795 10797 10800 10802 10803 10804 10805 10805 10803 10802 10802 10803 10804 10805 10804 10804 10805 10806 10806 10806 10805 10805 10805 10805 10804 10804 10803 10802 10801 10800 10798 10797 10795 10794 10792 10791 10789 10788 10786 10784 10783 10781 10779 10778 10776 10774 10773 10771 10769 10767 10765 10763 10761 10758 10756 10753 10751 10749 10746 10744 10743 10741 10739 10737 10735 10733
10742 10746 10749 10752 10755 10758 10761 10763 10766 10768 10770 10772 10773 10775 10776 10778 10781 10783 10785 10788 10790 10792 10794 10796 10796 10796 10796 10796 10795 10794 10795 10795 10795 10795 10795 10795 10796 10796 10796 10795 10795 10795 10794 10794 10793 10792 10791 10790 10789 10787 10786 10785 10783 10782 10781 10779 10777 10775 10774 10772 10770 10769 10767 10766 10764 10763 10761 10759 10757 10754 10752 10750 10747 10744 10742 10739 10737 10735 10733 10731 10729 10727 10725 10723 10721
10733 10737 10740 10743 10747 10750 10752 10755 10757 10760 10761 10763 10765 10767 10768 10770 10772 10775 10777 10779 10781 10783 10785 10787 10788 10788 10788 10787 10787 10786 10786 10786 10786 10786 10786 10786 10786 10786 10786 10786 10785 10785 10784 10783 10782 10781 10780 10779 10778 10777 10775 10774 10773 10772 10770 10768 10767 10765 10763 10762 10760 10759 10757 10756 10755 10753 10751 10749 10746 10744 10741 10738 10735 10732 10730 10728 10726 10724 10722 10719 10717 10715 10712 10710 10709
10723 10727 10731 10734 10738 10741 10744 10746 10749 10751 10753 10755 10757 10758 10760 10762 10764 10766 10768 10770 10772 10774 10776 10777 10779 10779 10780 10780 10780 10779 10779 10778 10778 10778 10778 10777 10777 10777 10777 10776 10776 10775 10774 10774 10772 10771 10770 10769 10768 10767 10765 10764 10763 10762 10760 10758 10757 10755 10753 10752 10750 10749 10748 10746 10745 10743 10741 10738 10735 10732 10729 10726 10723 10720 10719 10717 10714 10712 10709 10707 10705 10702 10700 10698 10696
10714 10718 10722 10725 10728 10732 10734 10737 10740 10742 10744 10746 10748 10750 10751 10753 10754 10756 10759 10761 10763 10765 10767 10768 10769 10771 10771 10772 10773 10773 10772 10771 10770 10770 10770 10769 10769 10768 10768 10767 10766 10765 10765 10764 10764 10763 10761 10760 10759 10758 10757 10755 10754 10753 10751 10749 10747 10746 10744 10743 10741 10739 10737 10736 10734 10732 10730 10727 10724 10720 10716 10713 10710 10709 10707 10705 10703 10700 10697 10695 10692 10689 10687 10685 10683
10704 10709 10712 10716 10719 10722 10725 10728 10730 10732 10734 10736 10738 10740 10742 10743 10745 10747 10749 10751 10753 10755 10757 10759 10760 10762 10763 10763 10764 10764 10764 10763 10763 10762 10762 10762 10761 10759 10758 10757 10756 10756 10755 10755 10754 10754 10753 10752 10751 10749 10748 10747 10745 10744 10742 10740 10738 10736 10734 10732 10730 10728 10726 10724 10722 10720 10717 10714 10711 10708 10704 10701 10698 10697 10695 10693 10691 10687 10685 10683 10681 10677 10674 10672 10670
10693 10698 10702 10706 10709 10712 10715 10718 10720 10722 10724 10726 10728 10730 10732 10734 10736 10737 10739 10741 10743 10745 10747 10749 10751 10752 10753 10754 10754 10754 10754 10753 10753 10754 10754 10753 10751 10750 10749 10748 10748 10747 10747 10746 10745 10744 10744 10743 10741 10740 10738 10737 10735 10733 10731 10729 10727 10725 10723 10721 10718 10716 10714 10712 10710 10707 10704 10701 10698 10695 10692 10689 10687 10685 10683 10681 10678 10675 10672 10670 10668 10665 10662 10659 10656